Voltar ao catálogo

STARLINK-1063

AtivoComunicaçõesVLEO
NORAD 44768·PAYLOAD·🇺🇸 United States

Lançado Nov 11, 2019 de Cape Canaveral Space Force Station

Loading…

Próximas Passagens (próximas 24 horas)

TLE

AtualizadoSource: CelesTrak SupGP

Época: Sep 14, 2026, 20:41 UTC

1 44768C 19074BH  26257.86229167  .00120660  00000+0  13816-2 0  2575
2 44768  53.1493  36.8882 0000907 198.5843  22.2173 15.61427443    10

Acompanhe STARLINK-1063 em tempo real com AllMySat

Download on the App Store